STARLINK-1629, 46150

Orbit data source: Space-Track

STARLINK-1629, 46150 is a payload satellite owned by SpaceX/Seattle (US) in LEO that was launched on Tue, 18 Aug 2020 UTC via an FALCON 9 launch vehicle from the Air Force Eastern Test Range (AFETR). Payload-class satellites include a variety of spacecraft equipped with specific instruments for various scientific and technological missions. These include communications satellites like Starlink; space stations such as the ISS; scientific satellites like the Hubble; Earth observation satellites from companies like Planet Labs, Umbra, and HawkEye 360; GPS; miniature CubeSats for education and research; and military/defense satellites.

Loading next visibility...
Identifier
46150, 2020-057AK
Orbit
LEO
Country
Flag of USUS
Related business
Manufacturer
SpaceX/Seattle
Mission
Partially operational Commercial Communications
Bus & Motor
STARLINK, Unknown motor
Mass
260 kg wet, ~248 kg dry
Launch date (UTC)
2020-08-18 (5 years ago)
Launch vehicle
FALCON 9
Launch site
Air Force Eastern Test Range (AFETR)
Object type
Payload
Rocket body
Debris
Shape & HBR
Box + 1 Pan, 10.1 m
Radar Cross Section
13.562 m², Large (>1 m²)

Expand to show TLE details & history
Last TLE update: 12 hours ago

TLE from 12 hours ago
0 STARLINK-1629
1 46150U 20057AK  25294.00002315  .00116933  00000-0  22772-2 0  9998
2 46150  53.0324 192.4079 0013902  99.2311  15.9424 15.46595545  5905
Epoch: 2025-10-21T00:00Z
TLE epoch observation values (Epoch: 2025-10-21T00:00:02.000Z)
Latitude
46.43409°
Longitude
-69.1927°
Altitude
422.587 km
Speed
7.669 km/s
True Right ascension
21h 22m 02s
True Declination
46° 15' 14"
Sunlit
Object was in full shadow at epoch
Visualization orbit readout
Latitude
Unknown
Longitude
Unknown
Altitude
Unknown
Speed
Unknown
Apparent Right ascension
Unknown
Apparent Declination
Unknown
Sunlit
N/A
Visualization observer readout
Local Sidereal Time
06:46:18
Azimuth
Unknown
Elevation
Unknown
Doppler factor
Unknown
Orbital elements
Apogee altitude
436.433 km
Perigee altitude
417.512 km
Semi-major axis
6,805.11 km
Eccentricity
0.00139
Inclination
53.0324°
RAAN
192.4079°
Arg. of periapsis
99.2311°
True anomaly
15.98623°
Mean anomaly
15.9424°
Eccentric anomaly
15.96431°
Mean motion
3.86625 °/min
Orbital period
93.11 mins
BSTAR
0.0022772
Loading maneuver chart data...
Computing Atmospheric mass density...

Documentation

Showing up to 5 results
|